Latest Weather Observations for Melbourne Airport

IDV60901

Issued at 11:21 pm EDT Sunday 29 March 2015 (issued every 10 minutes, with the page automatically refreshed every 10 minutes)

About weather observations | Map of Melbourne area stations | Latest observations for Melbourne area | Other Formats
Station Details ID: 086282 Name: MELBOURNE AIRPORT Lat: -37.67 Lon: 144.83 Height: 113.4 m
Data from the previous 72 hours. | See also: Recent months at Melbourne Airport
Date/Time
EDT
Tmp

°C
App
Tmp
°C
Dew
Point
°C
Rel
Hum
%
Delta-T

°C
Wind Press
QNH
hPa
Press
MSL
hPa
Rain
since
9 am
mm
Dir
 
Spd
km/h
Gust
km/h
Spd
kts
Gust
kts
29/11:00pm 14.5 12.7 9.4 71 2.6 ESE 9 11 5 6 1024.4 1024.2 0.0
29/10:30pm 14.4 12.9 9.3 71 2.6 S 7 11 4 6 1024.4 1024.2 0.0
29/10:00pm 15.6 12.2 9.0 65 3.4 SE 17 24 9 13 1024.2 1024.0 0.0
29/09:30pm 15.4 12.8 9.2 66 3.2 SSE 13 19 7 10 1023.9 1023.7 0.0
29/09:00pm 15.2 13.8 10.9 75 2.3 SSW 9 15 5 8 1023.5 1023.3 0.0
29/08:30pm 16.3 13.6 10.2 67 3.2 SSW 15 19 8 10 1023.0 1022.7 0.0
29/08:00pm 16.8 13.9 9.8 63 3.7 S 15 19 8 10 1022.5 1022.2 0.0
29/07:30pm 17.6 13.7 9.4 58 4.3 S 20 26 11 14 1022.1 1021.8 0.0
29/06:30pm 20.4 16.7 8.1 45 6.4 S 17 20 9 11 1020.9 1020.6 0.0
29/05:30pm 21.6 17.5 7.8 41 7.2 SSE 19 26 10 14 1020.5 1020.2 0.0
29/05:00pm 22.5 17.6 8.6 41 7.4 SSE 24 30 13 16 1020.3 1020.0 0.0
29/04:30pm 23.2 19.0 7.3 36 8.3 SSE 19 26 10 14 1020.2 1019.9 0.0
29/04:00pm 23.4 19.1 7.0 34 8.5 S 19 24 10 13 1020.3 1020.0 0.0
29/03:30pm 23.5 18.7 7.2 35 8.5 SSE 22 30 12 16 1020.5 1020.2 0.0
29/03:00pm 23.2 18.9 7.0 35 8.4 SSE 19 26 10 14 1020.7 1020.4 0.0
29/02:30pm 23.2 18.9 7.8 37 8.1 S 20 35 11 19 1020.8 1020.5 0.0
29/02:00pm 23.7 20.3 5.8 31 9.1 WNW 13 26 7 14 1021.0 1020.7 0.0
29/01:30pm 23.3 20.4 6.3 33 8.7 SW 11 19 6 10 1021.4 1021.1 0.0
29/01:00pm 23.0 20.0 6.1 33 8.6 W 11 22 6 12 1021.7 1021.4 0.0
29/12:00pm 21.5 19.1 6.8 38 7.5 NW 9 20 5 11 1022.6 1022.3 0.0
29/11:30am 21.2 17.9 6.6 38 7.4 WNW 13 22 7 12 1022.9 1022.6 0.0
29/11:00am 20.2 17.0 6.8 41 6.8 W 13 22 7 12 1023.0 1022.7 0.0
29/10:00am 18.5 15.5 7.5 48 5.6 N 13 15 7 8 1023.3 1023.0 0.0
29/09:30am 16.8 13.3 7.4 54 4.7 N 15 20 8 11 1023.2 1022.9 0.0
29/09:00am 15.1 10.8 7.2 59 3.9 N 19 26 10 14 1023.2 1022.9 0.0
29/08:30am 13.5 9.6 7.1 65 3.1 N 17 20 9 11 1023.1 1022.8 0.0
29/08:00am 8.7 7.5 6.5 86 1.0 N 2 9 1 5 1022.9 1022.6 0.0
29/07:30am 10.3 8.2 6.7 78 1.7 N 7 11 4 6 1022.5 1022.2 0.0
29/06:30am 9.0 5.7 6.2 82 1.3 N 13 17 7 9 1021.6 1021.3 0.0
29/05:30am 7.5 4.0 5.5 87 0.9 N 13 15 7 8 1021.1 1020.8 0.0
29/05:00am 8.6 4.5 6.2 85 1.1 N 17 19 9 10 1020.9 1020.6 0.0
29/04:30am 8.5 4.4 6.3 86 1.0 N 17 20 9 11 1020.8 1020.5 0.0
29/04:00am 8.7 3.7 6.5 86 1.0 N 22 26 12 14 1020.7 1020.4 0.0
29/03:00am 8.8 4.8 6.6 86 1.0 N 17 17 9 9 1021.4 1021.1 0.0
29/02:30am 8.9 4.9 6.8 87 1.0 N 17 19 9 10 1021.7 1021.4 0.0
29/02:00am 8.8 5.9 6.4 85 1.1 N 11 13 6 7 1022.1 1021.8 0.0
29/01:30am 9.1 6.2 6.7 85 1.1 N 11 13 6 7 1022.3 1022.0 0.0
29/01:00am 9.1 5.9 6.7 85 1.1 N 13 13 7 7 1022.4 1022.1 0.0
29/12:30am 9.4 7.0 6.8 84 1.2 N 9 9 5 5 1022.6 1022.3 0.0
 
Date/Time
EDT
Tmp

°C
App
Tmp
°C
Dew
Point
°C
Rel
Hum
%
Delta-T

°C
Wind Press
QNH
hPa
Press
MSL
hPa
Rain
since
9 am
mm
Dir
 
Spd
km/h
Gust
km/h
Spd
kts
Gust
kts
28/11:30pm 10.1 7.7 6.9 80 1.5 WNW 9 11 5 6 1022.8 1022.5 0.0
28/11:00pm 11.2 9.3 7.5 78 1.8 WNW 7 9 4 5 1022.8 1022.5 0.0
28/10:30pm 11.4 9.4 7.2 75 2.0 W 7 9 4 5 1022.7 1022.4 0.0
28/10:00pm 12.2 11.7 7.7 74 2.2 CALM 0 0 0 0 1022.7 1022.4 0.0
28/09:30pm 13.2 12.7 7.9 70 2.6 CALM 0 0 0 0 1022.6 1022.3 0.0
28/09:00pm 13.6 11.9 8.4 71 2.6 SSE 7 9 4 5 1022.6 1022.3 0.0
28/08:54pm 13.7 12.6 8.3 70 2.7 S 4 9 2 5 1022.6 1022.3 0.0
28/08:40pm 13.7 12.0 8.5 71 2.6 S 7 9 4 5 1022.7 1022.4 0.0
28/08:30pm 14.1 12.0 8.1 67 3.0 S 9 11 5 6 1022.7 1022.4 0.0
28/08:00pm 14.3 11.7 7.9 65 3.2 S 11 13 6 7 1022.4 1022.1 0.0
28/07:30pm 15.3 12.7 7.7 60 3.8 S 11 13 6 7 1022.2 1021.9 0.0
28/07:00pm 16.7 12.8 7.3 54 4.7 SSE 17 24 9 13 1022.0 1021.7 0.0
28/06:30pm 17.9 14.0 7.2 49 5.4 SSE 17 22 9 12 1021.9 1021.6 0.0
28/06:00pm 18.3 14.0 6.9 47 5.7 SSE 19 26 10 14 1021.8 1021.5 0.0
28/05:30pm 19.0 14.5 6.9 45 6.1 SSE 20 26 11 14 1022.0 1021.7 0.0
28/05:00pm 19.3 16.7 6.3 42 6.5 SE 9 15 5 8 1022.1 1021.8 0.0
28/04:30pm 19.6 16.3 6.4 42 6.6 ESE 13 20 7 11 1022.2 1021.9 0.0
28/04:00pm 19.3 16.4 6.5 43 6.4 SE 11 26 6 14 1022.7 1022.4 0.0
28/03:30pm 19.0 15.6 6.1 43 6.4 SE 13 26 7 14 1022.9 1022.6 0.0
28/03:00pm 19.1 16.5 6.0 42 6.5 W 9 15 5 8 1023.2 1022.9 0.0
28/02:30pm 18.7 15.3 5.9 43 6.3 S 13 20 7 11 1023.6 1023.4 0.0
28/02:00pm 18.3 15.0 6.4 45 5.9 ESE 13 19 7 10 1024.2 1024.0 0.0
28/01:30pm 16.9 14.3 6.3 49 5.2 SW 9 19 5 10 1024.5 1024.3 0.0
28/01:00pm 17.0 15.0 6.2 49 5.3 W 6 11 3 6 1024.9 1024.7 0.0
28/12:30pm 16.7 14.6 6.5 51 5.0 WSW 7 11 4 6 1025.3 1025.1 0.0
28/12:00pm 16.0 13.1 6.4 53 4.7 WNW 11 15 6 8 1025.7 1025.5 0.0
28/11:30am 15.6 12.7 6.3 54 4.5 SSW 11 19 6 10 1025.9 1025.7 0.0
28/11:00am 15.5 13.0 6.7 55 4.3 SSW 9 15 5 8 1025.8 1025.6 0.0
28/10:30am 14.7 12.2 6.4 57 4.0 WSW 9 13 5 7 1025.9 1025.7 0.0
28/10:00am 14.8 12.4 6.8 58 3.9 WSW 9 15 5 8 1026.2 1026.0 0.0
28/09:30am 13.5 11.1 7.1 65 3.1 WSW 9 13 5 7 1026.2 1026.0 0.0
28/09:00am 12.9 10.6 7.6 70 2.6 WSW 9 13 5 7 1025.9 1025.7 0.0
28/08:30am 12.4 10.1 7.5 72 2.4 WSW 9 11 5 6 1025.7 1025.5 0.0
28/08:00am 12.1 9.9 7.8 75 2.1 W 9 11 5 6 1025.4 1025.2 0.0
28/07:30am 11.7 10.1 8.0 78 1.8 WSW 6 9 3 5 1025.1 1024.9 0.0
28/07:00am 11.6 9.0 7.7 77 1.9 W 11 15 6 8 1024.8 1024.6 0.0
28/06:30am 11.5 8.9 7.8 78 1.8 W 11 13 6 7 1024.7 1024.5 0.0
28/06:00am 11.3 9.1 7.8 79 1.7 W 9 11 5 6 1024.7 1024.5 0.0
28/05:30am 11.1 9.3 7.8 80 1.6 W 7 9 4 5 1024.7 1024.5 0.0
28/05:00am 11.0 8.8 7.9 81 1.5 W 9 11 5 6 1024.6 1024.4 0.0
28/04:30am 10.6 7.6 7.7 82 1.4 WNW 13 15 7 8 1024.3 1024.1 0.0
28/04:00am 9.8 6.8 7.7 87 1.0 WNW 13 13 7 7 1024.5 1024.3 0.0
28/03:30am 8.7 7.2 6.8 88 0.9 WNW 4 9 2 5 1024.5 1024.3 0.0
28/03:00am 8.3 5.4 6.6 89 0.8 W 11 13 6 7 1024.5 1024.3 0.0
28/02:30am 8.9 5.7 6.8 87 1.0 W 13 17 7 9 1024.6 1024.4 0.0
28/02:00am 9.6 7.2 7.1 84 1.2 W 9 11 5 6 1024.9 1024.7 0.0
28/01:30am 10.6 8.9 7.5 81 1.5 SSW 6 11 3 6 1024.9 1024.7 0.0
28/01:00am 11.4 8.4 7.5 77 1.9 WSW 13 17 7 9 1024.9 1024.7 0.0
28/12:30am 11.9 8.4 7.3 73 2.2 WSW 15 17 8 9 1024.9 1024.7 0.0
28/12:00am 12.6 9.1 7.0 68 2.7 WSW 15 19 8 10 1025.0 1024.8 0.0
 
Date/Time
EDT
Tmp

°C
App
Tmp
°C
Dew
Point
°C
Rel
Hum
%
Delta-T

°C
Wind Press
QNH
hPa
Press
MSL
hPa
Rain
since
9 am
mm
Dir
 
Spd
km/h
Gust
km/h
Spd
kts
Gust
kts
27/11:30pm 13.2 9.2 6.8 65 3.1 SW 17 20 9 11 1025.2 1025.0 0.0
27/11:00pm 13.6 9.6 6.5 62 3.4 SW 17 24 9 13 1025.2 1025.0 0.0
27/10:30pm 14.0 10.2 6.0 58 3.8 SW 15 20 8 11 1025.2 1025.0 0.0
27/10:00pm 14.3 10.1 5.9 57 4.0 SW 17 26 9 14 1025.2 1025.0 0.0
27/09:30pm 14.3 10.1 5.7 56 4.1 WSW 17 22 9 12 1025.2 1025.0 0.0
27/09:00pm 14.4 10.2 5.5 55 4.2 SW 17 24 9 13 1025.0 1024.8 0.0
27/08:30pm 14.6 11.0 6.6 58 3.9 SSW 15 19 8 10 1024.7 1024.5 0.0
27/08:00pm 14.8 11.5 6.6 58 4.0 S 13 17 7 9 1024.4 1024.2 0.0
27/07:30pm 14.9 11.7 6.9 58 3.9 SSW 13 19 7 10 1024.0 1023.8 0.0
27/07:00pm 15.7 10.6 6.2 53 4.6 SW 22 30 12 16 1023.8 1023.6 0.0
27/06:30pm 16.2 9.9 3.9 44 5.7 SW 26 33 14 18 1023.4 1023.2 0.0
27/06:00pm 16.5 11.0 3.8 42 5.9 SW 22 30 12 16 1023.2 1022.9 0.0
27/05:30pm 16.3 10.4 3.8 43 5.8 WSW 24 30 13 16 1023.2 1022.9 0.0
27/05:00pm 16.4 9.7 3.6 42 5.9 WSW 28 41 15 22 1023.2 1022.9 0.0
27/04:30pm 16.6 9.2 3.9 42 5.9 WSW 32 44 17 24 1023.2 1022.9 0.0
27/04:00pm 16.9 9.5 3.8 41 6.1 WSW 32 41 17 22 1023.2 1022.9 0.0
27/03:30pm 16.9 10.1 5.0 45 5.7 WSW 30 41 16 22 1023.4 1023.2 0.0
27/03:00pm 16.7 8.8 4.1 43 5.9 SW 35 48 19 26 1023.5 1023.3 0.0
27/02:30pm 16.8 9.2 4.0 42 6.0 WSW 33 48 18 26 1023.5 1023.3 0.0
27/02:00pm 16.4 9.8 5.9 50 5.1 SW 30 41 16 22 1023.7 1023.5 0.0
27/01:30pm 15.2 8.2 6.8 57 4.1 SW 33 43 18 23 1024.0 1023.8 0.0
27/01:00pm 15.9 9.6 7.5 57 4.2 SW 30 37 16 20 1023.9 1023.7 0.0
27/12:30pm 16.7 9.1 5.8 48 5.3 SW 35 46 19 25 1023.9 1023.7 0.0
27/12:00pm 16.6 9.0 5.6 48 5.3 SW 35 48 19 26 1024.1 1023.9 0.0
27/11:30am 16.1 8.3 6.5 53 4.7 WSW 37 52 20 28 1024.0 1023.8 0.0
27/11:23am 16.7 9.7 6.8 52 4.9 WSW 33 52 18 28 1024.1 1023.9 0.0
27/11:00am 14.6 7.7 7.3 61 3.6 WSW 33 50 18 27 1024.1 1023.9 0.0
27/10:30am 14.9 6.8 7.2 60 3.8 WSW 39 52 21 28 1023.9 1023.7 0.0
27/10:00am 14.6 6.6 7.5 62 3.5 W 39 50 21 27 1023.6 1023.4 0.0
27/09:40am 14.7 7.4 7.4 61 3.6 WSW 35 59 19 32 1023.5 1023.3 0.0
27/09:30am 13.9 7.2 7.4 65 3.2 WSW 32 41 17 22 1023.6 1023.4 0.0
27/09:16am 13.8 6.6 7.7 66 3.0 WSW 35 54 19 29 1023.5 1023.3 0.0
27/09:00am 13.3 6.7 7.6 68 2.8 WSW 32 43 17 23 1023.4 1023.2 0.2
27/08:30am 12.9 7.2 8.3 73 2.3 WSW 28 37 15 20 1022.8 1022.5 0.2
27/08:00am 12.4 5.9 8.1 75 2.1 W 32 43 17 23 1022.3 1022.0 0.2
27/07:30am 12.5 7.6 8.3 75 2.1 WSW 24 32 13 17 1022.0 1021.7 0.2
27/07:00am 12.5 7.6 8.5 76 2.0 W 24 33 13 18 1021.6 1021.3 0.2
27/06:30am 12.3 6.6 8.5 77 1.9 W 28 35 15 19 1021.4 1021.1 0.2
27/06:00am 12.6 6.9 8.2 74 2.2 W 28 37 15 20 1020.9 1020.6 0.2
27/05:30am 12.4 7.4 8.2 75 2.1 W 24 32 13 17 1020.6 1020.3 0.2
27/05:00am 12.0 7.0 7.9 76 2.0 W 24 32 13 17 1020.5 1020.2 0.2
27/04:30am 12.4 6.6 7.9 74 2.2 W 28 35 15 19 1020.3 1020.0 0.2
27/04:00am 12.5 6.7 8.0 74 2.2 W 28 35 15 19 1020.2 1019.9 0.2
27/03:30am 12.7 6.5 8.0 73 2.3 W 30 37 16 20 1020.2 1019.9 0.2
27/03:00am 13.0 6.4 7.9 71 2.5 W 32 41 17 22 1020.2 1019.9 0.2
27/02:30am 13.2 6.6 7.9 70 2.6 WSW 32 43 17 23 1020.1 1019.8 0.2
27/02:00am 13.2 7.4 7.9 70 2.6 W 28 33 15 18 1019.9 1019.6 0.2
27/01:30am 12.6 7.6 8.2 74 2.2 W 24 30 13 16 1019.8 1019.5 0.2
27/01:00am 12.9 7.5 8.1 72 2.4 W 26 33 14 18 1020.0 1019.7 0.2
27/12:30am 13.2 7.9 8.4 72 2.4 WNW 26 33 14 18 1020.1 1019.8 0.2
27/12:00am 13.3 8.2 7.8 69 2.7 WNW 24 32 13 17 1019.8 1019.5 0.2
 
Date/Time
EDT
Tmp

°C
App
Tmp
°C
Dew
Point
°C
Rel
Hum
%
Delta-T

°C
Wind Press
QNH
hPa
Press
MSL
hPa
Rain
since
9 am
mm
Dir
 
Spd
km/h
Gust
km/h
Spd
kts
Gust
kts
26/11:30pm 13.3 9.1 8.1 71 2.6 WNW 20 28 11 15 1019.6 1019.3 0.2

Latest Capital City Observations: Canberra | Sydney | Melbourne | Brisbane | Adelaide | Perth | Hobart | Darwin

Other Formats:

Comma delimited format used in spreadsheet applications
http://www.bom.gov.au/fwo/IDV60901/IDV60901.94866.axf

JavaScript Object Notation format (JSON) in row-major order
http://www.bom.gov.au/fwo/IDV60901/IDV60901.94866.json